Regional Weather Roundup
Issued by NWS

Home | Current Version | Previous Version | Graphics & Text | Print | Product List | Glossary On
Versions: 1 2 3 4 5 6 7 8 9 10 11 12 13 14 15 16 17 18 19 20 21 22 23 24 25 26 27 28 29 30 31 32 33 34 35 36 37 38 39 40 41 42 43 44 45 46 47 48 49 50
000
ASUS43 KBIS 030202
RWRND

NORTH DAKOTA REGIONAL WEATHER ROUNDUP
NATIONAL WEATHER SERVICE BISMARCK ND
900 PM CDT TUE JUN 02 2015

NOTE: "FAIR" INDICATES FEW OR NO CLOUDS BELOW 12,000 FEET WITH NO
SIGNIFICANT WEATHER AND/OR OBSTRUCTIONS TO VISIBILITY.


NDZ001>003-009>011-017-030300-
NORTHWEST NORTH DAKOTA

CITY           SKY/WX    TMP DP  RH WIND       PRES   REMARKS
WILLISTON      CLOUDY    57  54  89 N15       29.87R
MINOT          LGT RAIN  61  57  87 NW7       29.79R
MINOT AFB      HVY RAIN  57  57 100 N23G29    29.80R
$$

NDZ018>021-031>035-040>046-030300-
SOUTHWEST NORTH DAKOTA

CITY           SKY/WX    TMP DP  RH WIND       PRES   REMARKS
BISMARCK       PTCLDY    69  65  86 SE6       29.74R
DICKINSON      CLOUDY    58  51  78 NW16      29.80S
GARRISON         N/A     65  61  87 CALM      29.74R
HETTINGER ARPT CLEAR     65  55  70 NW12      29.83R
$$

NDZ004>008-012>016-024-026-027-054-030300-
NORTHEAST NORTH DAKOTA

CITY           SKY/WX    TMP DP  RH WIND       PRES   REMARKS
GRAND FORKS    CLOUDY    63  61  93 N15       29.75S
GRND FRKS AFB  CLOUDY    62  60  94 NE10      29.76S
DEVILS LAKE    CLOUDY    61  55  82 NE14      29.77R
$$

NDZ022-023-025-028>030-036>039-047>053-030300-
SOUTHEAST NORTH DAKOTA

CITY           SKY/WX    TMP DP  RH WIND       PRES   REMARKS
FARGO          CLOUDY    77  63  61 SE13      29.68F
JAMESTOWN      CLOUDY    70  65  84 NW9       29.70R
$$



USA.gov is the U.S. government's official web portal to all federal, state and local government web resources and services.